Regional Weather Roundup
Issued by NWS

Home | Current Version | Previous Version | Graphics & Text | Print | Product List | Glossary On
Versions: 1 2 3 4 5 6 7 8 9 10 11 12 13 14 15 16 17 18 19 20 21 22 23 24 25 26 27 28 29 30 31 32 33 34 35 36 37 38 39 40 41 42 43 44 45 46 47 48 49 50
000
ASUS43 KIND 200009
RWRIN

WEATHER ROUNDUP FOR INDIANA
NATIONAL WEATHER SERVICE INDIANAPOLIS IN
700 PM EST FRI DEC 19 2014

NOTE: "FAIR" INDICATES FEW OR NO CLOUDS BELOW 12,000 FEET WITH NO
SIGNIFICANT WEATHER AND/OR OBSTRUCTIONS TO VISIBILITY.

* - STATION DOES NOT REPORT WEATHER SUCH AS PRECIPITATION OR FOG.

+ - STATION NOT QUALITY CONTROLLED BY THE NATIONAL WEATHER SERVICE.
    USE DATA WITH CAUTION...ESPECIALLY DEWPOINT AND RELATIVE
    HUMIDITY OBSERVATIONS.

INZ001>003-010>013-019-020-200100-
NORTHWEST INDIANA

CITY           SKY/WX    TMP DP  RH WIND       PRES   REMARKS
GARY /AIRPORT/ CLOUDY    34  21  60 CALM      30.31
KNOX *+        CLOUDY    30  25  79 NW5       30.28F WCI  26
LA PORTE +     CLOUDY    32  27  83 NW5       30.29F WCI  27
6HR MIN TEMP:  32; 6HR MAX TEMP:  33;

MICHIGAN CITY+ CLOUDY    32  23  69 CALM      30.30F
MONTICELLO +   CLOUDY    30  27  90 CALM      30.29F
RENSSELAER +   CLOUDY    32  30  93 CALM      30.30S
VALPARAISO     CLOUDY    31  23  72 CALM      30.29F
6HR MIN TEMP:  30; 6HR MAX TEMP:  32;


$$

LMZ046-743>745-200100-
SOUTHERN LAKE MICHIGAN

STATION/POSITION TIME  TEMP WIND        PRES
                       AIR  DIR/SP/G
                 (UTC) (F)  (DEG/KT/KT) (MB)

$$

INZ004-005-014>016-021>024-200100-
NORTH CENTRAL INDIANA

CITY           SKY/WX    TMP DP  RH WIND       PRES   REMARKS
GOSHEN         CLOUDY    31  26  82 W6        30.29F WCI  25
6HR MIN TEMP:  30; 6HR MAX TEMP:  35;

LOGANSPORT +   CLOUDY    30  27  86 CALM      30.30F
PERU/GRISSOM   CLOUDY    29  29 100 NW2       30.28F
6HR MIN TEMP:  28; 6HR MAX TEMP:  30;

ROCHESTER +    CLOUDY    32  30  93 NW5       30.29F WCI  27
SOUTH BEND     CLOUDY    32  27  81 CALM      30.29F
6HR MIN TEMP:  32; 6HR MAX TEMP:  35;

WARSAW +       CLOUDY    32  28  86 NW5       30.28F WCI  27

$$

INZ006>009-017-018-025>027-200100-
NORTHEAST INDIANA

CITY           SKY/WX    TMP DP  RH WIND       PRES   REMARKS
ANGOLA *+      CLEAR     21  19  93 CALM      30.30S
AUBURN +       CLEAR     25  21  86 CALM      30.31F
FORT WAYNE     CLOUDY    30  24  78 E5        30.30F WCI  25
6HR MIN TEMP:  30; 6HR MAX TEMP:  33;

HUNTINGTON +   CLOUDY    30  26  83 CALM      30.29F
6HR MIN TEMP:  30; 6HR MAX TEMP:  32;


$$

INZ028-029-035-036-043>045-051>053-200100-
WEST CENTRAL INDIANA

CITY           SKY/WX    TMP DP  RH WIND       PRES   REMARKS
GREENCASTLE +  CLOUDY    30  23  74 NE3       30.29S
LAFAYETTE      CLOUDY    29  26  89 CALM      30.31S
6HR MIN TEMP:  27; 6HR MAX TEMP:  29;

TERRE HAUTE    CLOUDY    32  25  75 NE7       30.30S WCI  26
6HR MIN TEMP:  32; 6HR MAX TEMP:  35;


$$

INZ030>032-037>040-046>048-054>057-064-065-200100-
CENTRAL INDIANA

CITY           SKY/WX    TMP DP  RH WIND       PRES   REMARKS
CP ATTERBURY + CLOUDY    30  25  80 MISG      30.30F
FRANKFORT +    MOCLDY    29  28  94 CALM      30.30F FOG
INDIANAPOLIS   CLOUDY    29  23  78 CALM      30.28F
6HR MIN TEMP:  27; 6HR MAX TEMP:  29;

-EAGLE CREEK   CLOUDY    29  24  82 N3        30.29S
6HR MIN TEMP:  28; 6HR MAX TEMP:  30;

KOKOMO *+      CLOUDY    28  25  86 CALM      30.29F
MARION +       CLOUDY    29  27  92 CALM      30.29F FOG
MT COMFORT *+  CLOUDY    30  19  64 CALM      30.29F
SHELBYVILLE    CLOUDY    31  24  75 CALM      30.29F
6HR MIN TEMP:  30; 6HR MAX TEMP:  31;

ZIONSVILLE +   CLOUDY    30  26  83 CALM      30.29F HAZE
6HR MIN TEMP:  28; 6HR MAX TEMP:  30;


$$

INZ033-034-041-042-049-050-058-059-200100-
EAST CENTRAL INDIANA

CITY           SKY/WX    TMP DP  RH WIND       PRES   REMARKS
MUNCIE         CLOUDY    29  25  85 CALM      30.29F
6HR MIN TEMP:  28; 6HR MAX TEMP:  30;


$$

INZ060-061-067>069-081>083-085>088-200100-
SOUTHWEST INDIANA

CITY           SKY/WX    TMP DP  RH WIND       PRES   REMARKS
EVANSVILLE     MOCLDY    33  25  72 CALM      30.31R
6HR MIN TEMP:  33; 6HR MAX TEMP:  38;

HUNTINGBURG *+ PTCLDY    28  21  74 N5        30.30R WCI  23
6HR MIN TEMP:  28; 6HR MAX TEMP:  36;

WASHINGTON +   MOCLDY    29  25  83 CALM      30.30R
6HR MIN TEMP:  28; 6HR MAX TEMP:  33;


$$

INZ062-063-066-070>080-084-089>092-200100-
SOUTH CENTRAL AND SOUTHEAST INDIANA

CITY           SKY/WX    TMP DP  RH WIND       PRES   REMARKS
BLOOMINGTON    CLOUDY    31  23  72 NE7       30.28S WCI  24
6HR MIN TEMP:  31; 6HR MAX TEMP:  33;


$$




USA.gov is the U.S. government's official web portal to all federal, state and local government web resources and services.